Time,TemperatureF,DewpointF,PressureIn,WindDirection,WindDirectionDegrees,WindSpeedMPH,WindSpeedGustMPH,Humidity,HourlyPrecipIn,Conditions,Clouds,dailyrainin,SoftwareType,DateUTC
2013-10-10 00:09:00,57.9,46.0,30.10,SSE,152,1.0,3.0,65,0.00,,,0.00,weatherlink.com 1.10,2013-10-10 05:09:00,
2013-10-10 00:24:00,57.5,46.0,30.10,SSE,156,2.0,3.0,66,0.00,,,0.00,weatherlink.com 1.10,2013-10-10 05:24:00,
2013-10-10 00:39:00,57.0,46.0,30.10,SE,141,2.0,4.0,67,0.00,,,0.00,weatherlink.com 1.10,2013-10-10 05:39:00,
2013-10-10 00:54:00,55.8,45.0,30.10,SE,141,3.0,4.0,68,0.00,,,0.00,weatherlink.com 1.10,2013-10-10 05:54:00,
2013-10-10 01:09:00,55.8,45.0,30.10,SE,141,3.0,3.0,68,0.00,,,0.00,weatherlink.com 1.10,2013-10-10 06:09:00,
2013-10-10 01:24:00,55.9,45.0,30.10,SSE,164,4.0,4.0,68,0.00,,,0.00,weatherlink.com 1.10,2013-10-10 06:24:00,
2013-10-10 01:39:00,55.7,46.0,30.10,SE,146,2.0,4.0,69,0.00,,,0.00,weatherlink.com 1.10,2013-10-10 06:39:00,
2013-10-10 01:54:00,55.2,46.0,30.09,SE,146,2.0,4.0,70,0.00,,,0.00,weatherlink.com 1.10,2013-10-10 06:54:00,
2013-10-10 02:09:00,55.2,46.0,30.09,SSE,153,4.0,6.0,70,0.00,,,0.00,weatherlink.com 1.10,2013-10-10 07:09:00,
2013-10-10 02:24:00,55.1,45.0,30.09,SSE,151,2.0,5.0,70,0.00,,,0.00,weatherlink.com 1.10,2013-10-10 07:24:00,
2013-10-10 02:39:00,54.3,45.0,30.09,SSE,165,3.0,4.0,72,0.00,,,0.00,weatherlink.com 1.10,2013-10-10 07:39:00,
2013-10-10 02:54:00,53.8,45.0,30.09,South,184,4.0,6.0,73,0.00,,,0.00,weatherlink.com 1.10,2013-10-10 07:54:00,
2013-10-10 03:09:00,53.5,45.0,30.09,SSE,161,3.0,5.0,74,0.00,,,0.00,weatherlink.com 1.10,2013-10-10 08:09:00,
2013-10-10 03:25:00,53.7,46.0,30.09,SSE,158,3.0,5.0,74,0.00,,,0.00,weatherlink.com 1.10,2013-10-10 08:25:00,
2013-10-10 03:39:00,53.7,46.0,30.09,South,172,3.0,4.0,74,0.00,,,0.00,weatherlink.com 1.10,2013-10-10 08:39:00,
2013-10-10 03:54:00,53.8,46.0,30.09,SSE,168,4.0,5.0,74,0.00,,,0.00,weatherlink.com 1.10,2013-10-10 08:54:00,
2013-10-10 04:09:00,53.3,46.0,30.10,South,175,4.0,5.0,75,0.00,,,0.00,weatherlink.com 1.10,2013-10-10 09:09:00,
2013-10-10 04:24:00,52.9,46.0,30.10,SSE,167,3.0,5.0,76,0.00,,,0.00,weatherlink.com 1.10,2013-10-10 09:24:00,
2013-10-10 04:39:00,52.8,46.0,30.10,SSE,166,2.0,5.0,77,0.00,,,0.00,weatherlink.com 1.10,2013-10-10 09:39:00,
2013-10-10 04:54:00,52.5,45.0,30.10,SSE,159,2.0,4.0,77,0.00,,,0.00,weatherlink.com 1.10,2013-10-10 09:54:00,
2013-10-10 05:10:00,52.2,46.0,30.10,SSE,167,4.0,5.0,78,0.00,,,0.00,weatherlink.com 1.10,2013-10-10 10:10:00,
2013-10-10 05:25:00,52.0,45.0,30.10,SSE,154,2.0,6.0,78,0.00,,,0.00,weatherlink.com 1.10,2013-10-10 10:25:00,
2013-10-10 05:40:00,51.6,45.0,30.10,SSE,148,3.0,5.0,79,0.00,,,0.00,weatherlink.com 1.10,2013-10-10 10:40:00,
2013-10-10 05:55:00,51.0,45.0,30.10,SE,130,3.0,4.0,81,0.00,,,0.00,weatherlink.com 1.10,2013-10-10 10:55:00,
2013-10-10 06:10:00,50.6,46.0,30.10,South,170,2.0,5.0,83,0.00,,,0.00,weatherlink.com 1.10,2013-10-10 11:10:00,
2013-10-10 06:25:00,50.1,45.0,30.10,SSE,152,2.0,5.0,83,0.00,,,0.00,weatherlink.com 1.10,2013-10-10 11:25:00,
2013-10-10 06:40:00,49.9,45.0,30.10,SSE,148,2.0,5.0,84,0.00,,,0.00,weatherlink.com 1.10,2013-10-10 11:40:00,
2013-10-10 06:55:00,49.8,45.0,30.10,SE,133,2.0,5.0,84,0.00,,,0.00,weatherlink.com 1.10,2013-10-10 11:55:00,
2013-10-10 07:10:00,49.8,45.0,30.10,SSE,159,4.0,4.0,84,0.00,,,0.00,weatherlink.com 1.10,2013-10-10 12:10:00,
2013-10-10 07:25:00,50.0,45.0,30.11,SSE,149,0.0,3.0,84,0.00,,,0.00,weatherlink.com 1.10,2013-10-10 12:25:00,
2013-10-10 07:40:00,51.1,46.0,30.11,SSE,152,1.0,3.0,82,0.00,,,0.00,weatherlink.com 1.10,2013-10-10 12:40:00,
2013-10-10 07:55:00,52.2,46.0,30.12,SSE,166,3.0,5.0,80,0.00,,,0.00,weatherlink.com 1.10,2013-10-10 12:55:00,
2013-10-10 08:10:00,53.6,47.0,30.12,SSE,167,3.0,4.0,78,0.00,,,0.00,weatherlink.com 1.10,2013-10-10 13:10:00,
2013-10-10 08:25:00,54.4,47.0,30.12,South,175,3.0,5.0,77,0.00,,,0.00,weatherlink.com 1.10,2013-10-10 13:25:00,
2013-10-10 08:40:00,55.3,48.0,30.12,South,183,2.0,5.0,76,0.00,,,0.00,weatherlink.com 1.10,2013-10-10 13:40:00,
2013-10-10 08:55:00,56.5,48.0,30.12,South,176,2.0,5.0,74,0.00,,,0.00,weatherlink.com 1.10,2013-10-10 13:55:00,
2013-10-10 09:10:00,59.2,50.0,30.13,SE,129,1.0,-999.0,71,-99.99,,,0.00,weatherlink.com 1.10,2013-10-10 14:10:00,
2013-10-10 09:25:00,60.1,50.0,30.13,SSW,194,1.0,3.0,70,0.00,,,0.00,weatherlink.com 1.10,2013-10-10 14:25:00,
2013-10-10 09:40:00,61.2,50.0,30.13,SW,229,4.0,4.0,68,0.00,,,0.00,weatherlink.com 1.10,2013-10-10 14:40:00,
2013-10-10 09:55:00,62.7,52.0,30.12,SE,131,5.0,5.0,69,0.00,,,0.00,weatherlink.com 1.10,2013-10-10 14:55:00,
2013-10-10 10:10:00,63.3,53.0,30.12,South,182,2.0,5.0,69,0.00,,,0.00,weatherlink.com 1.10,2013-10-10 15:10:00,
2013-10-10 10:25:00,63.8,53.0,30.12,SSE,150,2.0,4.0,69,0.00,,,0.00,weatherlink.com 1.10,2013-10-10 15:25:00,
2013-10-10 10:40:00,64.9,54.0,30.11,SSE,162,2.0,7.0,67,0.00,,,0.00,weatherlink.com 1.10,2013-10-10 15:40:00,
2013-10-10 10:55:00,66.4,55.0,30.11,WSW,243,2.0,6.0,66,0.00,,,0.00,weatherlink.com 1.10,2013-10-10 15:55:00,
2013-10-10 11:11:00,67.3,55.0,30.11,SSE,151,2.0,6.0,65,0.00,,,0.00,weatherlink.com 1.10,2013-10-10 16:11:00,
2013-10-10 11:26:00,68.5,56.0,30.10,South,186,3.0,7.0,64,0.00,,,0.00,weatherlink.com 1.10,2013-10-10 16:26:00,
2013-10-10 11:41:00,70.1,56.0,30.10,SSE,168,8.0,8.0,62,0.00,,,0.00,weatherlink.com 1.10,2013-10-10 16:41:00,
2013-10-10 11:56:00,70.1,56.0,30.09,SSE,156,4.0,11.0,62,0.00,,,0.00,weatherlink.com 1.10,2013-10-10 16:56:00,
2013-10-10 12:11:00,71.2,56.0,30.08,SSW,198,6.0,11.0,58,0.00,,,0.00,weatherlink.com 1.10,2013-10-10 17:11:00,
2013-10-10 12:26:00,71.5,55.0,30.07,South,170,8.0,12.0,56,0.00,,,0.00,weatherlink.com 1.10,2013-10-10 17:26:00,
2013-10-10 12:41:00,71.9,55.0,30.07,South,183,4.0,12.0,56,0.00,,,0.00,weatherlink.com 1.10,2013-10-10 17:41:00,
2013-10-10 12:56:00,72.0,56.0,30.07,South,177,5.0,12.0,58,0.00,,,0.00,weatherlink.com 1.10,2013-10-10 17:56:00,
2013-10-10 13:11:00,71.9,56.0,30.06,SW,224,5.0,11.0,57,0.00,,,0.00,weatherlink.com 1.10,2013-10-10 18:11:00,
2013-10-10 13:26:00,72.9,56.0,30.05,South,175,3.0,13.0,56,0.00,,,0.00,weatherlink.com 1.10,2013-10-10 18:26:00,
2013-10-10 13:41:00,73.5,56.0,30.05,South,190,3.0,10.0,54,0.00,,,0.00,weatherlink.com 1.10,2013-10-10 18:41:00,
2013-10-10 13:56:00,74.6,55.0,30.04,South,187,3.0,9.0,51,0.00,,,0.00,weatherlink.com 1.10,2013-10-10 18:56:00,
2013-10-10 14:11:00,74.7,55.0,30.03,South,186,7.0,10.0,50,0.00,,,0.00,weatherlink.com 1.10,2013-10-10 19:11:00,
2013-10-10 14:26:00,74.9,54.0,30.03,WSW,248,6.0,12.0,49,0.00,,,0.00,weatherlink.com 1.10,2013-10-10 19:26:00,
2013-10-10 14:41:00,74.9,55.0,30.02,SW,214,6.0,9.0,50,0.00,,,0.00,weatherlink.com 1.10,2013-10-10 19:41:00,
2013-10-10 14:56:00,75.7,54.0,30.02,SW,217,6.0,13.0,47,0.00,,,0.00,weatherlink.com 1.10,2013-10-10 19:56:00,
2013-10-10 15:11:00,75.9,55.0,30.01,South,169,4.0,13.0,48,0.00,,,0.00,weatherlink.com 1.10,2013-10-10 20:11:00,
2013-10-10 15:26:00,76.3,55.0,30.01,South,174,5.0,11.0,47,0.00,,,0.00,weatherlink.com 1.10,2013-10-10 20:26:00,
2013-10-10 15:41:00,76.2,54.0,30.01,SSW,196,4.0,11.0,46,0.00,,,0.00,weatherlink.com 1.10,2013-10-10 20:41:00,
2013-10-10 15:56:00,76.2,53.0,30.00,WSW,253,2.0,11.0,45,0.00,,,0.00,weatherlink.com 1.10,2013-10-10 20:56:00,
2013-10-10 16:11:00,76.0,54.0,30.00,West,270,1.0,11.0,46,0.00,,,0.00,weatherlink.com 1.10,2013-10-10 21:11:00,
2013-10-10 16:26:00,76.2,54.0,29.99,WSW,257,2.0,12.0,46,0.00,,,0.00,weatherlink.com 1.10,2013-10-10 21:26:00,
2013-10-10 16:41:00,76.2,54.0,30.00,WSW,243,3.0,11.0,47,0.00,,,0.00,weatherlink.com 1.10,2013-10-10 21:41:00,
2013-10-10 16:56:00,76.0,54.0,30.00,SSW,204,7.0,11.0,47,0.00,,,0.00,weatherlink.com 1.10,2013-10-10 21:56:00,
2013-10-10 17:11:00,75.4,54.0,30.00,SSW,194,8.0,11.0,47,0.00,,,0.00,weatherlink.com 1.10,2013-10-10 22:11:00,
2013-10-10 17:26:00,75.3,53.0,30.00,SSW,201,7.0,9.0,46,0.00,,,0.00,weatherlink.com 1.10,2013-10-10 22:26:00,
2013-10-10 17:42:00,74.9,53.0,29.99,South,176,3.0,8.0,47,0.00,,,0.00,weatherlink.com 1.10,2013-10-10 22:42:00,
2013-10-10 17:56:00,74.3,53.0,29.99,South,187,2.0,5.0,47,0.00,,,0.00,weatherlink.com 1.10,2013-10-10 22:56:00,
2013-10-10 18:12:00,73.4,53.0,29.99,SSW,204,0.0,4.0,49,0.00,,,0.00,weatherlink.com 1.10,2013-10-10 23:12:00,
2013-10-10 18:26:00,71.6,53.0,29.99,SSE,166,1.0,3.0,52,0.00,,,0.00,weatherlink.com 1.10,2013-10-10 23:26:00,
2013-10-10 18:42:00,70.1,53.0,29.99,SSE,152,4.0,4.0,55,0.00,,,0.00,weatherlink.com 1.10,2013-10-10 23:42:00,
2013-10-10 18:57:00,69.0,53.0,29.98,South,172,1.0,3.0,57,0.00,,,0.00,weatherlink.com 1.10,2013-10-10 23:57:00,
2013-10-10 19:12:00,68.4,53.0,29.98,SSE,148,2.0,4.0,58,0.00,,,0.00,weatherlink.com 1.10,2013-10-11 00:12:00,
2013-10-10 19:24:00,68.1,54.0,29.98,South,182,3.0,5.0,60,0.00,,,0.00,weatherlink.com 1.10,2013-10-11 00:24:00,
2013-10-10 19:37:00,67.6,54.0,29.98,SSE,153,1.0,4.0,61,0.00,,,0.00,weatherlink.com 1.10,2013-10-11 00:37:00,
2013-10-10 19:52:00,66.7,54.0,29.99,SSE,156,1.0,3.0,63,0.00,,,0.00,weatherlink.com 1.10,2013-10-11 00:52:00,
2013-10-10 20:07:00,66.1,54.0,29.98,SSE,159,2.0,4.0,65,0.00,,,0.00,weatherlink.com 1.10,2013-10-11 01:07:00,
2013-10-10 20:22:00,65.4,54.0,29.98,SSE,164,0.0,3.0,67,0.00,,,0.00,weatherlink.com 1.10,2013-10-11 01:22:00,
2013-10-10 20:37:00,64.8,54.0,29.98,SSE,159,2.0,3.0,68,0.00,,,0.00,weatherlink.com 1.10,2013-10-11 01:37:00,
2013-10-10 20:52:00,64.2,54.0,29.98,South,179,1.0,4.0,69,0.00,,,0.00,weatherlink.com 1.10,2013-10-11 01:52:00,
2013-10-10 21:07:00,63.9,54.0,29.98,SE,137,3.0,5.0,70,0.00,,,0.00,weatherlink.com 1.10,2013-10-11 02:07:00,
2013-10-10 21:22:00,63.5,54.0,29.97,SE,145,2.0,5.0,71,0.00,,,0.00,weatherlink.com 1.10,2013-10-11 02:22:00,
2013-10-10 21:37:00,63.0,54.0,29.98,SSE,149,3.0,6.0,72,0.00,,,0.00,weatherlink.com 1.10,2013-10-11 02:37:00,
2013-10-10 21:52:00,62.6,54.0,29.97,South,169,2.0,5.0,73,0.00,,,0.00,weatherlink.com 1.10,2013-10-11 02:52:00,
2013-10-10 22:07:00,62.5,54.0,29.97,SSE,151,4.0,5.0,74,0.00,,,0.00,weatherlink.com 1.10,2013-10-11 03:07:00,
2013-10-10 22:22:00,62.4,54.0,29.97,SSE,162,2.0,5.0,75,0.00,,,0.00,weatherlink.com 1.10,2013-10-11 03:22:00,
2013-10-10 22:37:00,62.3,54.0,29.97,SE,138,1.0,4.0,75,0.00,,,0.00,weatherlink.com 1.10,2013-10-11 03:37:00,
2013-10-10 22:52:00,62.1,54.0,29.98,South,175,2.0,6.0,76,0.00,,,0.00,weatherlink.com 1.10,2013-10-11 03:52:00,
2013-10-10 23:07:00,61.6,54.0,29.98,SSE,153,2.0,4.0,77,0.00,,,0.00,weatherlink.com 1.10,2013-10-11 04:07:00,
2013-10-10 23:22:00,61.0,54.0,29.98,SSE,150,2.0,4.0,78,0.00,,,0.00,weatherlink.com 1.10,2013-10-11 04:22:00,
2013-10-10 23:37:00,60.5,54.0,29.98,SSE,163,3.0,3.0,80,0.00,,,0.00,weatherlink.com 1.10,2013-10-11 04:37:00,
2013-10-10 23:52:00,60.2,54.0,29.98,SSE,149,0.0,4.0,80,0.00,,,0.00,weatherlink.com 1.10,2013-10-11 04:52:00,